GW3474 Weather Reports


Display with metric or nautical units.
time (UTC)temp
F
wind
direction
speed
MPH
gust
MPH
rain 1hr
in
rain 24hr
in
rain mn
in
humidity
%
barometer
mb
20260504191516 85 0.0 0.0 0.00 0.00 0.00 19 1006.8
20260504190535 86 0.0 0.0 0.00 0.00 0.00 18 1006.9
20260504185516 85 0.0 0.0 0.00 0.00 0.00 19 1007.0
20260504184515 85 0.0 0.0 0.00 0.00 0.00 19 1007.2
20260504183516 84 0.0 0.0 0.00 0.00 0.00 20 1007.3
20260504182515 85 0.0 0.0 0.00 0.00 0.00 18 1007.5
20260504181516 85 0.0 0.0 0.00 0.00 0.00 16 1007.6
20260504180516 85 0.0 0.0 0.00 0.00 0.00 19 1007.6
20260504175515 85 0.0 0.0 0.00 0.00 0.00 19 1007.8
20260504174518 85 0.0 0.0 0.00 0.00 0.00 19 1008.0
20260504173516 85 0.0 0.0 0.00 0.00 0.00 19 1008.1
20260504172515 85 0.0 0.0 0.00 0.00 0.00 21 1008.2
20260504171515 83 0.0 0.0 0.00 0.00 0.00 22 1008.2
20260504170516 83 0.0 0.0 0.00 0.00 0.00 22 1008.2
20260504150536 72 0.0 0.0 0.00 0.00 0.00 40 1008.0
20260504140516 65 0.0 0.0 0.00 0.00 0.00 51 1008.5
20260504130518 55 0.0 0.0 0.00 0.00 0.00 67 1007.9
20260504110515 54 0.0 0.0 0.00 0.00 0.00 66 1007.8
20260504100516 56 0.0 0.0 0.00 0.00 0.00 64 1008.5
20260504081516 58 0.0 0.0 0.00 0.00 0.00 57 1009.1
20260504080515 59 0.0 0.0 0.00 0.00 0.00 55 1009.2
20260504050516 63 0.0 0.0 0.00 0.00 0.00 45 1010.4
20260504045557 63 0.0 0.0 0.00 0.00 0.00 44 1010.4
20260504044516 63 0.0 0.0 0.00 0.00 0.00 43 1010.4
20260504043515 64 0.0 0.0 0.00 0.00 0.00 42 1010.4
20260504042515 64 0.0 0.0 0.00 0.00 0.00 41 1010.4
20260504041536 64 0.0 0.0 0.00 0.00 0.00 40 1010.4
20260504040537 65 0.0 0.0 0.00 0.00 0.00 40 1010.4
20260504035515 65 0.0 0.0 0.00 0.00 0.00 38 1010.4
20260504034515 66 0.0 0.0 0.00 0.00 0.00 37 1010.5
20260504033515 67 0.0 0.0 0.00 0.00 0.00 35 1010.5
20260504032515 68 0.0 0.0 0.00 0.00 0.00 33 1010.4
20260504031515 68 0.0 0.0 0.00 0.00 0.00 32 1010.4
20260504030516 68 0.0 0.0 0.00 0.00 0.00 32 1010.1
20260504025515 69 0.0 0.0 0.00 0.00 0.00 31 1010.1
20260504024515 70 0.0 0.0 0.00 0.00 0.00 29 1010.0
20260504023537 71 0.0 0.0 0.00 0.00 0.00 28 1009.6
20260504022516 71 0.0 0.0 0.00 0.00 0.00 27 1009.6
20260504021515 72 0.0 0.0 0.00 0.00 0.00 27 1009.6
20260504020515 73 0.0 0.0 0.00 0.00 0.00 26 1009.3
20260504015538 74 0.0 0.0 0.00 0.00 0.00 24 1009.3
20260504014515 75 0.0 0.0 0.00 0.00 0.00 23 1009.1
20260504013515 75 0.0 0.0 0.00 0.00 0.00 23 1008.8
20260504012515 76 0.0 0.0 0.00 0.00 0.00 21 1008.8
20260504011517 78 0.0 0.0 0.00 0.00 0.00 20 1008.9
20260504010515 79 0.0 0.0 0.00 0.00 0.00 18 1008.8
20260504005516 79 0.0 0.0 0.00 0.00 0.00 18 1009.0
20260504004516 80 0.0 0.0 0.00 0.00 0.00 17 1009.1
20260504003516 80 0.0 0.0 0.00 0.00 0.00 16 1008.9
20260504002515 81 0.0 0.0 0.00 0.00 0.00 16 1009.1
20260504001515 81 0.0 0.0 0.00 0.00 0.00 15 1009.2
20260504000515 81 0.0 0.0 0.00 0.00 0.00 16 1009.4
20260503235515 81 0.0 0.0 0.00 0.00 0.00 16 1009.7
20260503234515 81 0.0 0.0 0.00 0.00 0.00 16 1009.9
20260503233516 81 0.0 0.0 0.00 0.00 0.00 16 1010.0
20260503232515 81 0.0 0.0 0.00 0.00 0.00 17 1010.2
20260503231516 82 0.0 0.0 0.00 0.00 0.00 15 1010.4
20260503230516 81 0.0 0.0 0.00 0.00 0.00 16 1010.5
20260503225515 81 0.0 0.0 0.00 0.00 0.00 16 1010.7
20260503224515 81 0.0 0.0 0.00 0.00 0.00 16 1010.8
20260503223516 81 0.0 0.0 0.00 0.00 0.00 16 1010.9
20260503222516 81 0.0 0.0 0.00 0.00 0.00 17 1011.1
20260503221516 81 0.0 0.0 0.00 0.00 0.00 16 1011.1
20260503220515 81 0.0 0.0 0.00 0.00 0.00 16 1011.3
20260503215516 80 0.0 0.0 0.00 0.00 0.00 17 1011.5
20260503214515 81 0.0 0.0 0.00 0.00 0.00 16 1011.6
20260503213515 81 0.0 0.0 0.00 0.00 0.00 17 1011.8
20260503212516 81 0.0 0.0 0.00 0.00 0.00 16 1012.0
20260503211515 81 0.0 0.0 0.00 0.00 0.00 16 1012.2
20260503210515 81 0.0 0.0 0.00 0.00 0.00 16 1012.5
20260503205516 80 0.0 0.0 0.00 0.00 0.00 17 1012.5
20260503204516 81 0.0 0.0 0.00 0.00 0.00 16 1012.8
20260503203516 82 0.0 0.0 0.00 0.00 0.00 15 1013.2
20260503202535 81 0.0 0.0 0.00 0.00 0.00 16 1013.3
20260503201516 81 0.0 0.0 0.00 0.00 0.00 15 1013.3
20260503200515 80 0.0 0.0 0.00 0.00 0.00 16 1013.5
20260503195516 80 0.0 0.0 0.00 0.00 0.00 14 1013.6
20260503194515 81 0.0 0.0 0.00 0.00 0.00 15 1013.9
20260503193515 80 0.0 0.0 0.00 0.00 0.00 15 1013.9
20260503192515 80 0.0 0.0 0.00 0.00 0.00 15 1014.0